Live-Position
3D-Globus wird geladen...
Über Landsat 9
Group: 3 satellites
Beschreibung wird geladen...
Nächste Überflüge
Passes for default location (London). Set your location on the main map for personalized predictions.
Höhenverlauf
Loading altitude history...
No altitude history available
Zweizeiliger Elementsatz
1 49260U 21088A 26106.18822897 .00000196 00000-0 53563-4 0 9992
2 49260 98.1881 177.3565 0001135 101.6405 258.4921 14.57114100241977
Epoch: 16. Apr. 2026 •
Age: 13 hours
Aktueller Status
Höhe 730.8 km
Geschwindigkeit 7.49 km/s
Subsatellitenpunkt -76.55°S,
142.32°W
Startdatum 27. Sept. 2021
Alter 4.5 years
Typ earth observation
Technische Details
Klassifizierung Payload
Masse 2710.00 kg
Trockenmasse 2390.00 kg
Gesamtmasse 2710.00 kg
Länge 5.80 m
Durchmesser 2.50 m
Spannweite 13.00 m
Form Cyl hex + pan
Hersteller NGISGA
Bus-Typ Leostar-3
Phasenstatus In Orbit
Besitzer/Staat USGS/GSFC/US
Most Searched
Loading...